Weather in Sofia

Bulgaria     42˚41′51″N   23˚19′18″E
temp.,
°C
wind,
m/s
gust,
m/s
humid.,
%
clouds,
%
prec.,
mm/h
press.,
hPa
HPBL,
m
28 november, sat
sat2823:00+5˚w11531 0.0 102222
02:00+4˚w12590 0.0 102122
05:00+3˚w11610 0.0 102122
08:00+2˚w115815 0.0 102023
11:00+7˚wnw124015 0.0 1020239
14:00+11˚nw123032 0.0 1017377
17:00+7˚wnw014034 0.0 101822
20:00+6˚nnw004653 0.0 101822
29 november, sun
sun2923:00+5˚w005197 0.0 101922
02:00+4˚wnw115496 0.0 101822
05:00+3˚nw116084 0.0 101822
08:00+2˚n016863 0.0 101924
11:00+6˚n115381 0.0 1019263
14:00+8˚e114590 0.0 1017319
17:00+6˚nne005261 0.0 101725
20:00+4˚ne127277 0.0 1018100
30 november, mon
mon3023:00+3˚nne118299 0.0 1019132
02:00+3˚nnw228299 0.0 1020228
05:00+2˚nw1294100 0.4 1020155
08:00+2˚nw2395100 1.4 1022195
11:00+2˚nnw238598 0.6 1023370
14:00+3˚nw347198 0.7 1023578
17:00+2˚nnw247098 0.0 1024661
20:00nw237499 0.1 1026343
1 december, tue
tue123:00−2˚nw237979 0.0 1027220
02:00−3˚nw128167 0.0 1027193
05:00−3˚nnw118125 0.0 1026196
08:00−4˚ene117923 0.0 1027217
11:00ene12600 0.0 1025480
14:00+2˚e23510 0.0 1023683
17:00ene34650 0.0 1022212
20:00−2˚ene23780 0.0 1024146
2 december, wed
wed223:00−2˚e12780 0.0 1024104
02:00−3˚ene12807 0.0 102390
05:00−3˚ene12833 0.0 102396
08:00−3˚ene12821 0.0 102491
11:00+1˚e12600 0.0 1023357
14:00+4˚e23494 0.0 1020474
17:00+2˚e246323 0.0 1021124
20:00−1˚e247519 0.0 1023119